Погода в Шыгырдане

Россия / Чувашская Республика     55°03′15″N   47°33′17″E
темп.,
°C
ветер,
м/с
пор.,
м/с
влажн.,
%
обл.,
%
осадки,
мм/ч
давл.,
гПа
погр.,
м
21 апреля, ср
ср2100:00+5юв91744100 0.0 1023735
03:00+4юв101948100 0.0 1021745
06:00+2юв101971100 1.6 1021790
09:00+3юв101972100 3.0 1020860
12:00+3юв91874100 0.2 1020766
15:00+3юв101886100 0.6 1019744
18:00+2ююв91689100 0.2 1019698
21:00+3ююв81793100 0.3 1019645
22 апреля, чт
чт2200:00+4ю81694100 0.2 1018660
03:00+5ююз51088100 0.2 1020504
06:00+5ю4895100 0.0 1022260
09:00+7ю698281 0.0 1022499
12:00+9ю7976100 0.0 1022812
15:00+11ю686761 0.1 10221042
18:00+11ю477065 1.7 1022217
21:00+7ю48909 2.6 1023207
23 апреля, пт
пт2300:00+6ю35945 0.0 1024110
03:00+5ю22943 0.0 102418
06:00+6ю22913 0.0 102561
09:00+10ююв34710 0.0 1024477
12:00+14ююв445626 0.1 10231371
15:00+15юв445095 0.5 10221473
18:00+12юв576467 0.3 1022540
21:00+9юв377754 0.3 1022202
24 апреля, сб
сб2400:00+7вюв3584100 0.0 1021111
03:00+6в3689100 0.0 1019138
06:00+6всв2689100 0.0 1018208
09:00+9вюв4578100 0.0 1016570
12:00+11юв4470100 0.1 1015972
15:00+11вюв557287 0.3 1013959
18:00+9юв5675100 0.1 1012841
21:00+6юв511895 0.1 1010399
25 апреля, вс
вс2500:00+7ююв61292100 0.6 1008502
03:00+5зюз61082100 3.1 1008773
06:00+4зюз511835 0.0 1010640
09:00+8зюз7105872 0.0 10101486
12:00+11зюз6940100 0.0 10112633
15:00+11зюз71036100 0.0 10112661
18:00+10юз69465 0.0 1012914
21:00+6юз39635 0.1 1014213